SDM5220 UHMM-UNNT

Flight info

Callsign SDM5220
Flight time N/A
Altitude 34000
Route KUKIR5D KUKIR A949 INLIR G370 KUNIK/K0907F360 G370 ABGUR W289 GISUN W39 ERBOG W105 ENS B911 TOKMO A300 NN G829 REGMI REGMI1M
Aircraft B748/H-SDFGHIMRWXY/S

Departure

Time 2026-04-27 16:38
Airport Sokol Airport (UHMM)

Arrival

Time N/A
Airport Novosibirsk Tolmachevo Airport (UNNT)
Time Latitude Longitude Altitude Speed Heading
2026-04-27 16:33 59.91097 150.72278 521 ft 22 kts 271°
2026-04-27 16:34 59.91105 150.71931 522 ft 27 kts 274°
2026-04-27 16:34 59.91118 150.71516 521 ft 33 kts 274°
2026-04-27 16:34 59.91135 150.71013 518 ft 39 kts 274°
2026-04-27 16:34 59.91151 150.70428 512 ft 45 kts 273°
2026-04-27 16:35 59.91168 150.69794 507 ft 44 kts 274°
2026-04-27 16:35 59.91177 150.69528 505 ft 21 kts 274°
2026-04-27 16:35 59.91202 150.69040 504 ft 9 kts 210°
2026-04-27 16:36 59.91169 150.69153 504 ft 15 kts 90°
2026-04-27 16:36 59.91168 150.69321 504 ft 0 kts 92°
2026-04-27 16:37 59.91167 150.69360 505 ft 14 kts 92°
2026-04-27 16:37 59.91154 150.69862 508 ft 58 kts 93°
2026-04-27 16:37 59.91129 150.70801 516 ft 69 kts 93°
2026-04-27 16:38 59.91100 150.72011 523 ft 106 kts 92°
2026-04-27 16:38 59.91056 150.73726 512 ft 140 kts 93°
2026-04-27 16:38 59.90990 150.76010 832 ft 180 kts 93°
2026-04-27 16:38 59.90919 150.78346 1311 ft 167 kts 92°
2026-04-27 16:39 59.90860 150.80727 1456 ft 177 kts 92°
2026-04-27 16:39 59.90791 150.83225 1636 ft 187 kts 92°
2026-04-27 16:39 59.90720 150.85829 1925 ft 191 kts 92°
2026-04-27 16:39 59.90688 150.88295 2165 ft 195 kts 84°
2026-04-27 16:40 59.91230 150.90988 2256 ft 208 kts 52°
2026-04-27 16:40 59.92451 150.92770 2152 ft 230 kts 18°
2026-04-27 16:40 59.94066 150.93022 2286 ft 245 kts 346°
2026-04-27 16:40 59.95581 150.91536 2760 ft 250 kts 317°
2026-04-27 16:41 59.95941 150.90816 2929 ft 246 kts 302°
2026-04-27 16:41 59.95940 150.90823 2904 ft 0 kts 296°
2026-04-27 16:41 59.95938 150.90826 2898 ft 0 kts 295°
2026-04-27 16:41 59.95936 150.90831 2891 ft 0 kts 292°
2026-04-27 16:42 59.95934 150.90834 2883 ft 0 kts 291°
2026-04-27 16:42 59.95932 150.90839 2876 ft 0 kts 289°
2026-04-27 16:42 59.95930 150.90842 2870 ft 0 kts 288°
2026-04-27 16:42 59.95928 150.90846 2863 ft 0 kts 288°
2026-04-27 16:43 59.95926 150.90849 2857 ft 0 kts 287°
2026-04-27 16:43 59.95924 150.90852 2851 ft 0 kts 286°
2026-04-27 16:43 59.95923 150.90857 2844 ft 0 kts 285°
2026-04-27 16:43 59.95920 150.90860 2838 ft 0 kts 284°
2026-04-27 16:44 59.95918 150.90866 2828 ft 0 kts 284°
2026-04-27 16:44 59.95915 150.90869 2821 ft 0 kts 283°
2026-04-27 16:44 59.95913 150.90872 2814 ft 0 kts 282°
2026-04-27 16:44 59.95911 150.90877 2807 ft 0 kts 281°
2026-04-27 16:45 59.95909 150.90880 2800 ft 0 kts 280°
2026-04-27 16:45 59.95906 150.90883 2794 ft 0 kts 280°
2026-04-27 16:45 59.95905 150.90886 2788 ft 0 kts 281°
2026-04-27 16:45 59.95902 150.90887 2782 ft 0 kts 281°
2026-04-27 16:46 59.95900 150.90892 2775 ft 0 kts 281°
2026-04-27 16:46 59.95898 150.90895 2768 ft 0 kts 281°
2026-04-27 16:46 59.95895 150.90898 2762 ft 0 kts 281°
2026-04-27 16:46 59.95893 150.90900 2756 ft 0 kts 281°
2026-04-27 16:47 59.95891 150.90903 2750 ft 0 kts 281°
2026-04-27 16:47 59.95889 150.90906 2744 ft 0 kts 281°
2026-04-27 16:47 59.95887 150.90909 2738 ft 0 kts 281°
2026-04-27 16:47 59.95885 150.90912 2731 ft 0 kts 281°
2026-04-27 16:48 59.95882 150.90915 2724 ft 0 kts 281°
2026-04-27 16:48 59.95880 150.90918 2718 ft 0 kts 281°
2026-04-27 16:48 59.95878 150.90921 2712 ft 0 kts 281°
2026-04-27 16:49 59.95873 150.90927 2699 ft 0 kts 281°
2026-04-27 16:49 59.95871 150.90930 2693 ft 0 kts 281°
2026-04-27 16:49 59.95869 150.90933 2687 ft 0 kts 281°
2026-04-27 16:49 59.95867 150.90936 2680 ft 0 kts 281°
2026-04-27 16:50 59.95864 150.90939 2673 ft 0 kts 281°
2026-04-27 16:50 59.95862 150.90942 2667 ft 0 kts 281°